LUCH-5X (OLYMP-K 2)

Last updated on Tue Sep 22 2026 00:03:16 GMT+0000 (Coordinated Universal Time)

1 55841U 23031A 26264.21606947 .00000028 00000+0 00000+0 0 9995 2 55841 0.0207 114.8771 0000782 42.3661 342.6382 1.00275580 12900
UTC large
Height (km)
Speed (km/s)
/
Latitude / Longitude
Inclination (degrees)
Orbital Period (minutes)
Azimuth
Elevation
Range (km)
Doppler Factor

Next 0 passes for location: London (51.5072 / 0.1276)

No passes found over London.
LUCH-5X (OLYMP-K 2)